Location: Kalberh�ni
(46.4610°N, 7.2453°E)
Time: 05:55:24
(UTC+00:00)

Cosmos 1802 Rocket - Pass Details

Date: 25 October 2021
Orbit: 955 x 1010 km, 82.9° (Epoch: 05 December)

Event Time Altitude Azimuth Distance (km) Brightness Sun altitude
Rises 17:13:49 0° 124° (SE) 3,626 6.5 -8.7°
Enters shadow 17:14:34 - 120° (ESE) 3,423 6.4 -8.8°
Exits shadow 17:21:09 11° 66° (ENE) 2,621 5.6 -10.0°
Drops below altitude 10° 17:21:59 10° 58° (ENE) 2,695 5.8 -10.1°
Sets 17:26:32 0° 27° (NNE) 3,655 6.7 -10.9°
